Weather in Uspenskoye

Russia / Smolensk Oblast     55°20′30″N   34°39′47″E
temp.,
°C
wind,
m/s
gust,
m/s
humid.,
%
clouds,
%
prec.,
mm/h
press.,
hPa
HPBL,
m
6 march, sat
sat600:00−8nnw488495 0.0 1016203
03:00−11nnw349163 0.0 101886
06:00−12nw23910 0.0 101846
09:00−10wnw37891 0.0 1019220
12:00−6nw468031 0.0 1019944
15:00−5wnw477165 0.2 10171255
18:00−7w2583100 0.1 1017105
21:00−9wsw388960 0.1 1015168
7 march, sun
sun700:00−8sw5138264 0.0 1012489
03:00−6sw7159182 0.1 1008905
06:00−5sw91692100 0.7 10021083
09:00−4sw91791100 2.1 9971164
12:00−1wsw101889100 0.7 9951363
15:00−4wnw61562100 1.9 9961963
18:00−6wsw38739 0.0 997176
21:00−5w6148937 0.3 9971216
8 march, mon
mon800:00−6w51287100 0.4 996698
03:00−9w61482100 0.5 998934
06:00−9nw9158193 0.8 10001037
09:00−10wnw7148556 0.2 1003768
12:00−8nw61084100 0.1 1004901
15:00−6nw6983100 0.2 10071091
18:00−8nw4989100 0.2 1009603
21:00−11nnw4109196 0.2 1012244
9 march, tue
tue900:00−13nnw379698 0.0 1013188
03:00−13nnw369699 0.1 1015193
06:00−15nnw3696100 0.0 1016171
09:00−16nnw369595 0.1 1018225
12:00−13nnw358789 0.0 1019446
15:00−11nnw468058 0.0 1019598
18:00−13nnw128934 0.0 102021
21:00−14w129267 0.0 102220
10 march, wed
wed1000:00−13sw1195100 0.0 102220
03:00−13ese2396100 0.4 1022110
06:00−14ese4795100 0.9 1021265
09:00−15e5894100 1.8 1022320
12:00−13e5886100 0.3 1023436
15:00−11ene457361 0.3 1024604
18:00−14ene34860 0.0 102580
21:00−18ese339327 0.0 102667